Weather History for South Lake Tahoe, CA

Change the Weather History Date:

Tuesday, January 29, 2013

  Actual Average Record
Temperature  
Mean Temperature 38 °F 30 °F  
Max Temperature 47 °F 43 °F 54 °F (2012)
Min Temperature 29 °F 16 °F -20 °F (1979)
Degree Days  
Heating Degree Days 27 35  
Month to date heating degree days 1148 1022  
Since 1 July heating degree days 4010 4205  
Cooling Degree Days 0 0  
Month to date cooling degree days 0 0  
Year to date cooling degree days 0 0  
Moisture  
Dew Point 25 °F    
Average Humidity 59    
Maximum Humidity 72    
Minimum Humidity 45    
Precipitation  
Precipitation 0.00 in - 1.74 in (1967)
Month to date precipitation 0.71  
Year to date precipitation 0.71  
Sea Level Pressure  
Sea Level Pressure 30.26 in    
Wind  
Wind Speed 5 mph (NNE)    
Max Wind Speed 22 mph    
Max Gust Speed 36 mph    
Visibility 10 miles    
Events      
T = Trace of Precipitation, MM = Missing Value Source: NWS Daily Summary

Daily Weather History Graph

Daily Weather History Graph

Search for Another Location

Airport:

Trip Planner

Search our weather history database for the weather conditions in past years. The results will help you decide how hot, cold, wet, or windy it might be!

Date:

Astronomy

Jan. 29, 2013 Rise Set
Actual Time 7:08 AM PST 5:18 PM PST
Civil Twilight 6:40 AM PST 5:46 PM PST
Nautical Twilight 6:08 AM PST 6:18 PM PST
Astronomical Twilight 5:36 AM PST 6:50 PM PST
Moon 8:17 PM PST (1/29) 8:09 AM PST (1/29)
Length of Visible Light 11h 06m
Length of Day
10h 09m
Waning Gibbous, 93% of the Moon is Illuminated
Jan 29
Waning Gibbous
Feb 3
Last Quarter
Feb 9
New
Feb 17
First Quarter
Feb 25
Full

Hourly Weather History & Observations

Time (PST) Temp. Windchill Dew Point Humidity Pressure Visibility Wind Dir Wind Speed Gust Speed Precip Events Conditions
12:53 AM 30.0 °F 26.5 °F 23.0 °F 75% 30.17 in 10.0 mi SSW 3.5 mph - N/A   Overcast
1:53 AM 33.1 °F 28.7 °F 19.9 °F 59% 30.16 in 10.0 mi Variable 4.6 mph - N/A   Overcast
3:53 AM 32.0 °F - 23.0 °F 69% 30.18 in 10.0 mi Calm Calm - N/A   Overcast
4:53 AM 33.1 °F - 23.0 °F 66% 30.19 in 10.0 mi Calm Calm - N/A   Overcast
5:53 AM 33.1 °F - 24.1 °F 70% 30.21 in 10.0 mi Calm Calm - N/A   Overcast
6:53 AM 37.0 °F 31.0 °F 24.1 °F 59% 30.23 in 10.0 mi NNE 8.1 mph - N/A   Overcast
7:53 AM 37.9 °F 32.7 °F 25.0 °F 60% 30.25 in 10.0 mi North 6.9 mph - N/A   Overcast
8:53 AM 39.9 °F 33.4 °F 24.1 °F 53% 30.23 in 10.0 mi NNE 10.4 mph 21.9 mph N/A   Partly Cloudy
9:53 AM 39.9 °F 32.9 °F 25.0 °F 55% 30.26 in 10.0 mi NE 11.5 mph - N/A   Scattered Clouds
10:53 AM 41.0 °F 37.1 °F 26.1 °F 55% 30.27 in 10.0 mi Variable 5.8 mph - N/A   Overcast
11:53 AM 43.0 °F 36.4 °F 26.1 °F 51% 30.26 in 10.0 mi NNE 12.7 mph 19.6 mph N/A   Partly Cloudy
12:53 PM 44.1 °F 41.5 °F 26.1 °F 49% 30.23 in 10.0 mi Variable 4.6 mph - N/A   Clear
1:53 PM 45.0 °F 43.5 °F 27.0 °F 49% 30.22 in 10.0 mi Variable 3.5 mph - N/A   Scattered Clouds
2:53 PM 45.0 °F - 27.0 °F 49% 30.22 in 10.0 mi Calm Calm - N/A   Clear
3:53 PM 46.0 °F - 27.0 °F 47% 30.23 in 10.0 mi Calm Calm - N/A   Clear
4:53 PM 44.1 °F 40.8 °F 25.0 °F 47% 30.25 in 10.0 mi NE 5.8 mph - N/A   Mostly Cloudy
5:53 PM 41.0 °F 35.2 °F 25.0 °F 53% 30.28 in 10.0 mi NNE 9.2 mph 18.4 mph N/A   Clear
6:53 PM 41.0 °F 33.9 °F 25.0 °F 53% 30.29 in 10.0 mi NNE 12.7 mph 18.4 mph N/A   Clear
7:53 PM 37.9 °F 34.4 °F 26.1 °F 62% 30.33 in 10.0 mi Variable 4.6 mph - N/A   Partly Cloudy
8:53 PM 35.1 °F - 26.1 °F 70% 30.34 in 10.0 mi Calm Calm - N/A   Clear
9:53 PM 33.1 °F 27.7 °F 25.0 °F 72% 30.35 in 10.0 mi Variable 5.8 mph - N/A   Clear
10:53 PM 32.0 °F - 25.0 °F 75% 30.36 in 10.0 mi Calm Calm - N/A   Clear
11:53 PM 30.0 °F 24.1 °F 23.0 °F 75% 30.38 in 10.0 mi SSW 5.8 mph - N/A   Clear